Flag Weather past 2 weeks in St. Petersburg, Florida, U.S.A.

Now
69 °F

Clear.


Feels Like: 69 °F
Forecast: 57 / 68 °F
Wind: 5 mph from Northwest

Location: Whitted Airport

Current Time: Nov 1, 2014 at 1:21:34 AM

Latest Report: Oct 31, 2014 at 11:53 PM


Visibility: 10 mi

Pressure: 29.92 "Hg

Humidity: 57%

Dew point: 53 °F

Location of St. PetersburgLocation

Historic Weather in St. Petersburg — Graph

°F

St. Petersburg temperature yesterday

Maximum temperature yesterday: 74 °F (at 12:53 AM)
Minimum temperature yesterday: 69 °F (at 6:53 AM)
Average temperature yesterday: 71 °F

Past Weeks' High & Low Weather Summary

 TemperatureHumidityPressure
High85 °F (Oct 20, 2:53 PM)88% (Oct 22, 3:53 AM)30.16 "Hg (Oct 22, 3:53 AM)
Low66 °F (Oct 26, 7:53 AM)37% (Oct 27, 3:53 PM)29.83 "Hg (Oct 31, 2:53 PM)
Average75 °F65%29.97 "Hg
* Reported Oct 16 11:53 PM — Oct 31 11:53 PM, St. Petersburg, Weather by CustomWeather, © 2014

Note: Actual official high and low records may vary slightly from our data, if they occured in-between our weather recording intervals... More about our weather records

Advertising

St. Petersburg weather history for previous 24 hours

 ConditionsComfort  
Time TempWeatherWind HumidityBarometerVisibility
11:53 PM
Oct 31
69 °FClear.5 mph57%29.92 "Hg10 mi
10:53 PM69 °FClear.7 mph57%29.92 "Hg10 mi
9:53 PM69 °FClear.7 mph57%29.91 "Hg10 mi
8:53 PM69 °FClear.7 mph53%29.90 "Hg10 mi
7:53 PM70 °FClear.6 mph51%29.88 "Hg10 mi
6:53 PM71 °FSunny.12 mph51%29.86 "Hg10 mi
5:53 PM72 °FSunny.13 mph48%29.84 "Hg10 mi
4:53 PM72 °FSunny.8 mph49%29.83 "Hg10 mi
3:53 PM73 °FSunny.15 mph44%29.83 "Hg10 mi
2:53 PM73 °FSunny.18 mph44%29.83 "Hg10 mi
1:53 PM73 °FSunny.15 mph55%29.85 "Hg10 mi
12:53 PM73 °FPassing clouds.10 mph55%29.87 "Hg10 mi
11:53 AM73 °FSunny.12 mph55%29.89 "Hg10 mi
10:53 AM73 °FSunny.10 mph59%29.90 "Hg10 mi
9:53 AM72 °FPassing clouds.8 mph64%29.90 "Hg10 mi
8:53 AM69 °FPartly sunny.6 mph66%29.88 "Hg10 mi
7:53 AM69 °FPassing clouds.8 mph63%29.87 "Hg10 mi
6:53 AM69 °FClear.10 mph81%29.84 "Hg10 mi
5:53 AM70 °FPassing clouds.7 mph81%29.84 "Hg10 mi
5:01 AM72 °FPassing clouds.9 mph78%29.83 "Hg10 mi
3:53 AM73 °FPassing clouds.7 mph88%29.83 "Hg10 mi
2:53 AM73 °FOvercast.6 mph88%29.85 "Hg10 mi
1:53 AM73 °FPartly cloudy.5 mph88%29.86 "Hg10 mi
Weather by CustomWeather, © 2014

See weather overviewHow to use our weather pages